"2009-03-05 00:00:30",682903,13.34,252,2.202,0.798,16.12,107.2105,17.73,18.76,5.113,0,110.7,13.24,18.55,214.0
"2009-03-05 00:01:00",682904,13.19,252,4.803,0.778,16.09,107.2059,17.72,18.75,5.104,0,110.7,13.24,18.54,214.0
"2009-03-05 00:01:30",682905,12.46,251.2,2.974,0.655,16.08,107.2061,17.72,18.74,5.126,0,110.7,13.24,18.54,213.2
"2009-03-05 00:02:00",682906,14.56,251.3,3.615,1.025,16.11,107.2012,17.71,18.75,5.137,0,110.7,13.24,18.52,213.3
"2009-03-05 00:02:30",682907,14.69,253.5,3.721,0.822,16.15,107.2001,17.71,18.75,5.138,0,110.7,13.24,18.52,215.5
"2009-03-05 00:03:00",682908,15.1,254.6,2.323,0.636,16.17,107.2016,17.71,18.74,5.136,0,110.7,13.24,18.53,216.6
"2009-03-05 00:03:30",682909,14.54,257.2,1.758,0.312,16.25,107.2053,17.72,18.74,5.109,0,110.7,13.24,18.54,219.2
"2009-03-05 00:04:00",682910,13.88,255,3.323,0.507,16.18,107.2041,17.72,18.74,5.107,0,110.7,13.24,18.53,217.0
"2009-03-05 00:04:30",682911,14.44,255.2,2.009,0.599,16.2,107.2047,17.72,18.75,5.129,0,110.7,13.24,18.53,217.2
"2009-03-05 00:05:00",682912,15.34,259.6,2.026,0.723,16.2,107.2019,17.71,18.72,5.149,0,110.7,13.24,18.53,221.6
"2009-03-05 00:05:30",682913,14.02,259.1,2.41,1.184,16.19,107.2038,17.72,18.72,5.145,0,110.7,13.24,18.53,221.1
"2009-03-05 00:06:00",682914,14.23,256.3,1.596,0.27,16.28,107.2062,17.72,18.72,5.088,0,110.7,13.24,18.54,218.3
"2009-03-05 00:06:30",682915,13.68,259.8,1.095,0.34,16.32,107.2074,17.73,18.71,5.08,0,110.7,13.24,18.54,221.8
"2009-03-05 00:07:00",682916,13.04,260.1,2.482,0.276,16.29,107.205,17.72,18.7,5.105,0,110.7,13.24,18.53,222.1
"2009-03-05 00:07:30",682917,13.06,257.6,1.003,0.344,16.25,107.2083,17.73,18.7,5.083,0,110.7,13.24,18.54,219.6
"2009-03-05 00:08:00",682918,12.34,257.8,1.313,0.661,16.21,107.2061,17.72,18.7,5.109,0,110.7,13.24,18.54,219.8
"2009-03-05 00:08:30",682919,12.99,251.4,3.26,0.398,16.11,107.2037,17.72,18.7,5.106,0,110.7,13.24,18.53,213.4
"2009-03-05 00:09:00",682920,13.68,252.8,2.323,0.318,16.18,107.2014,17.71,18.69,5.099,0,110.7,13.24,18.53,214.8
"2009-03-05 00:09:30",682921,12.94,253.6,1.259,0.469,16.17,107.1966,17.7,18.69,5.112,0,110.7,13.24,18.51,215.6
"2009-03-05 00:10:00",682922,13,255.1,1.537,0.388,16.23,107.1926,17.69,18.69,5.101,0,110.7,13.24,18.50,217.1
"2009-03-05 00:10:30",682923,13.94,257.5,2.062,0.426,16.27,107.1844,17.67,18.69,5.103,0,110.7,13.24,18.48,219.5
"2009-03-05 00:11:00",682924,14.58,256.6,1.103,0.264,16.24,107.1817,17.66,18.69,4.985,0,110.7,13.24,18.47,218.6
"2009-03-05 00:11:30",682925,15.06,255.5,1.47,0.451,16.21,107.1865,17.67,18.68,4.894,0,110.7,13.24,18.49,217.5
"2009-03-05 00:12:00",682926,14.93,256.6,1.814,0.532,16.25,107.1878,17.68,18.67,4.916,0,110.7,13.24,18.49,218.6
"2009-03-05 00:12:30",682927,14.87,257.4,1.314,0.298,16.26,107.1878,17.68,18.68,4.901,0,110.7,13.24,18.49,219.4
"2009-03-05 00:13:00",682928,13.88,256.8,3.246,0.591,16.23,107.189,17.68,18.66,4.916,0,110.7,13.24,18.49,218.8
"2009-03-05 00:13:30",682929,14.13,257.1,1.917,0.805,16.33,107.1911,17.69,18.65,4.896,0,110.7,13.24,18.50,219.1
"2009-03-05 00:14:00",682930,13.86,253.8,3.827,0.587,16.26,107.1932,17.69,18.65,4.872,0,110.7,13.24,18.50,215.8
"2009-03-05 00:14:30",682931,12.92,254.3,1.938,0.472,16.17,107.1935,17.69,18.65,4.856,0,110.7,13.24,18.51,216.3
"2009-03-05 00:15:00",682932,13.26,257.1,1.958,0.57,16.24,107.1932,17.69,18.66,4.877,0,110.7,13.24,18.50,219.1
"2009-03-05 00:15:30",682933,14.53,261,4.205,0.676,16.28,107.1932,17.69,18.64,4.868,0,110.7,13.25,18.50,223.0
"2009-03-05 00:16:00",682934,14.06,260.7,2.028,0.625,16.25,107.1932,17.69,18.64,4.867,0,110.7,13.25,18.50,222.7
"2009-03-05 00:16:30",682935,14.01,257.7,2.624,0.449,16.27,107.1907,17.68,18.64,4.882,0,110.7,13.25,18.50,219.7
"2009-03-05 00:17:00",682936,13.52,256.8,2.507,0.3,16.19,107.1803,17.66,18.64,4.916,0,110.7,13.25,18.47,218.8
"2009-03-05 00:17:30",682937,14.4,255.5,1.229,1.507,16.19,107.1671,17.62,18.63,4.906,0,110.7,13.25,18.44,217.5
"2009-03-05 00:18:00",682938,14.89,256.3,1.539,0.704,16.28,107.164,17.62,18.62,4.835,0,110.7,13.25,18.43,218.3
"2009-03-05 00:18:30",682939,15.08,257.8,1.851,0.356,16.29,107.16,17.61,18.61,4.803,0,110.7,13.25,18.42,219.8
"2009-03-05 00:19:00",682940,13.08,255.1,2.523,0.44,16.26,107.1597,17.6,18.61,4.82,0,110.7,13.25,18.42,217.1
"2009-03-05 00:19:30",682941,12.77,248.6,3.244,0.357,16.12,107.1597,17.6,18.62,4.824,0,110.7,13.25,18.42,210.6
"2009-03-05 00:20:00",682942,13.86,248.5,3.315,0.739,16.15,107.1597,17.6,18.62,4.827,0,110.7,13.25,18.42,210.5
"2009-03-05 00:20:30",682943,14.58,249.1,1.569,0.366,16.21,107.1597,17.6,18.59,4.812,0,110.7,13.25,18.42,211.1
"2009-03-05 00:21:00",682944,13.82,248.7,1.978,0.391,16.24,107.1586,17.6,18.59,4.786,0,110.7,13.25,18.42,210.7
"2009-03-05 00:21:30",682945,13.14,248.1,2.654,0.347,16.2,107.1538,17.59,18.58,4.788,0,110.7,13.25,18.40,210.1
"2009-03-05 00:22:00",682946,13.64,259.9,1.999,0.407,16.26,107.144,17.56,18.57,4.787,0,110.7,13.25,18.38,221.9
"2009-03-05 00:22:30",682947,13.31,255.7,2.099,0.326,16.3,107.131,17.53,18.55,4.823,0,110.7,13.25,18.34,217.7
"2009-03-05 00:23:00",682948,13.32,260.4,4.152,0.53,16.17,107.1271,17.52,18.55,4.835,0,110.7,13.25,18.33,222.4
"2009-03-05 00:23:30",682949,13.99,254.3,2.69,0.764,16.19,107.126,17.52,18.54,4.839,0,110.7,13.25,18.33,216.3
"2009-03-05 00:24:00",682950,14.91,253.9,2.952,0.599,16.14,107.126,17.52,18.54,4.83,0,110.7,13.25,18.33,215.9
"2009-03-05 00:24:30",682951,13.07,250.1,6.51,0.978,16.07,107.126,17.52,18.53,4.855,0,110.7,13.25,18.33,212.1
"2009-03-05 00:25:00",682952,13.22,249.4,4.322,0.892,16.07,107.1254,17.52,18.54,4.897,0,110.7,13.26,18.33,211.4
"2009-03-05 00:25:30",682953,12.54,256.9,3.802,1.341,16.02,107.1153,17.49,18.51,4.916,0,110.7,13.25,18.30,218.9
"2009-03-05 00:26:00",682954,13.58,254.6,3.352,1.144,16.09,107.1082,17.47,18.49,4.946,0,110.7,13.25,18.29,216.6
"2009-03-05 00:26:30",682955,14.63,249.5,2.538,0.88,16.09,107.0928,17.43,18.48,4.952,0,110.7,13.25,18.25,211.5
"2009-03-05 00:27:00",682956,14.55,249.1,3.73,0.709,16.16,107.0922,17.43,18.47,4.976,0,110.7,13.25,18.24,211.1
"2009-03-05 00:27:30",682957,14.55,249.8,1.768,0.304,16.34,107.0922,17.43,18.46,4.891,0,110.7,13.25,18.24,211.8
"2009-03-05 00:28:00",682958,14.99,252,1.356,0.413,16.26,107.0922,17.43,18.46,4.874,0,110.7,13.25,18.24,214.0
"2009-03-05 00:28:30",682959,14.65,255.5,1.505,0.247,16.28,107.0877,17.42,18.45,4.863,0,110.7,13.25,18.23,217.5
"2009-03-05 00:29:00",682960,15.45,254.5,2.128,0.282,16.2,107.0745,17.39,18.43,4.881,0,110.7,13.25,18.20,216.5
"2009-03-05 00:29:30",682961,16.07,257.7,2.007,0.436,16.19,107.0621,17.35,18.41,4.925,0,110.7,13.25,18.17,219.7
"2009-03-05 00:30:00",682962,15.19,257.6,2.388,1.163,16.25,107.0584,17.34,18.41,4.948,0,110.7,13.25,18.16,219.6
"2009-03-05 00:30:30",682963,16.09,257.5,1.239,0.857,16.26,107.0584,17.34,18.39,4.964,0,110.7,13.25,18.16,219.5
"2009-03-05 00:31:00",682964,16.18,257.2,1.079,0.27,16.24,107.0584,17.34,18.38,4.984,0,110.7,13.25,18.16,219.2
"2009-03-05 00:31:30",682965,15.84,257.8,1.764,0.239,16.27,107.0584,17.34,18.38,4.998,0,110.7,13.26,18.16,219.8
"2009-03-05 00:32:00",682966,16.23,256,1.356,0.572,16.3,107.0584,17.34,18.35,5,0,110.7,13.26,18.16,218.0
"2009-03-05 00:32:30",682967,16.8,255.2,0.779,0.273,16.25,107.0548,17.34,18.35,5.002,0,110.7,13.26,18.15,217.2
"2009-03-05 00:33:00",682968,16.58,254.6,0.997,0.226,16.28,107.0466,17.31,18.36,5.02,0,110.7,13.26,18.13,216.6
"2009-03-05 00:33:30",682969,15.9,256.6,1.602,0.199,16.34,107.0421,17.3,18.34,5.046,0,110.7,13.26,18.12,218.6
"2009-03-05 00:34:00",682970,15.43,257.3,0.548,0.293,16.33,107.034,17.28,18.34,5.052,0,110.7,13.26,18.09,219.3
"2009-03-05 00:34:30",682971,15.03,256.6,1.581,0.558,16.42,107.0285,17.27,18.33,5.049,0,110.7,13.26,18.08,218.6
"2009-03-05 00:35:00",682972,14.03,259.7,1.984,0.389,16.42,107.0277,17.27,18.32,5.043,0,110.6,13.26,18.08,221.7
"2009-03-05 00:35:30",682973,15.25,262.1,1.491,0.695,16.37,107.0283,17.27,18.31,5.047,0,110.7,13.26,18.08,224.1
"2009-03-05 00:36:00",682974,15.47,261.2,1.608,0.284,16.3,107.0307,17.27,18.29,5.055,0,110.7,13.26,18.09,223.2
"2009-03-05 00:36:30",682975,16.21,262.4,1.993,0.461,16.29,107.034,17.28,18.29,5.049,0,110.7,13.26,18.09,224.4
"2009-03-05 00:37:00",682976,16.08,262.4,2.861,0.424,16.33,107.0361,17.29,18.28,5.07,0,110.6,13.26,18.10,224.4
"2009-03-05 00:37:30",682977,15.06,259.8,2.604,0.617,16.44,107.0391,17.3,18.28,5.046,0,110.6,13.26,18.11,221.8
"2009-03-05 00:38:00",682978,16.42,255.7,2.051,0.529,16.29,107.0421,17.3,18.27,5.042,0,110.6,13.26,18.12,217.7
"2009-03-05 00:38:30",682979,16.3,257.8,3.28,0.675,16.26,107.0395,17.3,18.27,5.074,0,110.6,13.26,18.11,219.8
"2009-03-05 00:39:00",682980,16.37,254.6,2.21,0.442,16.37,107.0335,17.28,18.27,5.048,0,110.6,13.26,18.09,216.6
"2009-03-05 00:39:30",682981,17.17,254,1.662,0.796,16.4,107.0291,17.27,18.27,4.994,0,110.6,13.26,18.08,216.0
"2009-03-05 00:40:00",682982,16.81,251.1,3.224,0.585,16.41,107.0294,17.27,18.24,4.994,0,110.6,13.25,18.08,213.1
"2009-03-05 00:40:30",682983,15.57,249.9,1.827,1.203,16.34,107.0278,17.27,18.25,4.985,0,110.6,13.26,18.08,211.9
"2009-03-05 00:41:00",682984,15.28,251.6,1.856,0.469,16.32,107.0248,17.26,18.24,4.991,0,110.6,13.26,18.07,213.6
"2009-03-05 00:41:30",682985,15.23,252.6,2.696,0.571,16.37,107.0255,17.26,18.23,5.034,0,110.6,13.26,18.07,214.6
"2009-03-05 00:42:00",682986,15.61,252.9,2.694,0.562,16.32,107.0258,17.26,18.24,5.063,0,110.6,13.26,18.07,214.9
"2009-03-05 00:42:30",682987,16.51,252.7,1.073,0.641,16.39,107.0264,17.26,18.23,5.087,0,110.6,13.26,18.08,214.7
"2009-03-05 00:43:00",682988,15.13,252.6,2.237,0.682,16.42,107.027,17.26,18.22,5.078,0,110.6,13.26,18.08,214.6
"2009-03-05 00:43:30",682989,15.48,251.6,1.011,0.219,16.27,107.027,17.26,18.22,5.091,0,110.6,13.26,18.08,213.6
"2009-03-05 00:44:00",682990,16.37,252.7,0.858,0.366,16.32,107.027,17.26,18.2,5.12,0,110.6,13.26,18.08,214.7
"2009-03-05 00:44:30",682991,15.76,251.8,1.548,0.344,16.36,107.0267,17.26,18.21,5.153,0,110.6,13.26,18.08,213.8
"2009-03-05 00:45:00",682992,14.77,251.2,1.688,0.289,16.32,107.0239,17.26,18.2,5.181,0,110.6,13.26,18.07,213.2
"2009-03-05 00:45:30",682993,15.84,252.4,2.503,0.537,16.35,107.0121,17.23,18.19,5.206,0,110.6,13.26,18.04,214.4
"2009-03-05 00:46:00",682994,15.2,253.3,3.19,0.678,16.41,106.9935,17.18,18.18,5.236,0,110.6,13.26,17.99,215.3
"2009-03-05 00:46:30",682995,14.52,255.7,1.999,0.44,16.49,106.9932,17.18,18.17,5.214,0,110.6,13.26,17.99,217.7
"2009-03-05 00:47:00",682996,15.18,253.8,1.243,0.349,16.47,106.9932,17.18,18.16,5.234,0,110.6,13.26,17.99,215.8
"2009-03-05 00:47:30",682997,14.37,253.2,2.218,0.32,16.45,106.993,17.18,18.16,5.256,0,110.6,13.26,17.99,215.2
"2009-03-05 00:48:00",682998,14.91,256.3,2.208,0.444,16.46,106.9789,17.14,18.14,5.278,0,110.6,13.26,17.95,218.3
"2009-03-05 00:48:30",682999,13.95,257.3,1.687,0.883,16.51,106.96,17.09,18.13,5.317,0,110.6,13.27,17.90,219.3
"2009-03-05 00:49:00",683000,15.93,261.6,1.508,0.466,16.48,106.9595,17.09,18.11,5.341,0,110.6,13.27,17.90,223.6
"2009-03-05 00:49:30",683001,15.21,259.4,1.43,0.245,16.61,106.9595,17.09,18.09,5.332,0,110.6,13.27,17.90,221.4
"2009-03-05 00:50:00",683002,14.22,259.2,1.587,0.363,16.69,106.9485,17.06,18.09,5.322,0,110.6,13.27,17.87,221.2
"2009-03-05 00:50:30",683003,14.35,259.6,1.551,0.278,16.61,106.9352,17.03,18.07,5.3,0,110.6,13.27,17.84,221.6
"2009-03-05 00:51:00",683004,14.11,262.7,1.961,0.364,16.64,106.9262,17.01,18.06,5.311,0,110.6,13.27,17.82,224.7
"2009-03-05 00:51:30",683005,13.6,261.9,0.936,0.521,16.6,106.9257,17,18.04,5.351,0,110.6,13.27,17.82,223.9
"2009-03-05 00:52:00",683006,13.76,263.8,1.175,0.36,16.56,106.9257,17,18.02,5.364,0,110.6,13.27,17.82,225.8
"2009-03-05 00:52:30",683007,13.67,263.9,1.717,0.566,16.58,106.9257,17,18.01,5.379,0,110.6,13.27,17.82,225.9
"2009-03-05 00:53:00",683008,13.61,268.2,1.829,0.467,16.44,106.9251,17,18,5.376,0,110.6,13.27,17.81,230.2
"2009-03-05 00:53:30",683009,12.65,265.4,2.108,0.415,16.33,106.9178,16.98,17.99,5.401,0,110.6,13.27,17.80,227.4
"2009-03-05 00:54:00",683010,12.89,262.4,2.587,0.284,16.5,106.9048,16.95,17.98,5.408,0,110.6,13.27,17.76,224.4
"2009-03-05 00:54:30",683011,12.65,262,4.711,0.555,16.44,106.8933,16.92,17.97,5.416,0,110.6,13.28,17.73,224.0
"2009-03-05 00:55:00",683012,12.32,260.2,3.915,0.443,16.56,106.8919,16.92,17.97,5.422,0,110.6,13.28,17.73,222.2
"2009-03-05 00:55:30",683013,12.18,255.7,2.291,0.674,16.47,106.8922,16.92,17.97,5.407,0,110.6,13.28,17.73,217.7
"2009-03-05 00:56:00",683014,11.39,257.1,1.841,0.624,16.37,106.8925,16.92,17.95,5.424,0,110.6,13.28,17.73,219.1
"2009-03-05 00:56:30",683015,11.95,256.4,4.282,0.601,16.41,106.8931,16.92,17.93,5.427,0,110.6,13.28,17.73,218.4
"2009-03-05 00:57:00",683016,14.93,255.5,2.294,1.381,16.51,106.8865,16.9,17.92,5.421,0,110.6,13.28,17.72,217.5
"2009-03-05 00:57:30",683017,16.47,250.4,1.691,0.417,16.44,106.8867,16.9,17.91,5.44,0,110.6,13.28,17.72,212.4
"2009-03-05 00:58:00",683018,15.81,247.8,1.228,0.194,16.35,106.8764,16.88,17.91,5.44,0,110.6,13.28,17.69,209.8
"2009-03-05 00:58:30",683019,15.95,249.4,2.135,0.627,16.28,106.8746,16.87,17.91,5.489,0,110.6,13.28,17.68,211.4
"2009-03-05 00:59:00",683020,15.23,246.9,3.469,0.529,16.29,106.8798,16.89,17.89,5.526,0,110.6,13.28,17.70,208.9
"2009-03-05 00:59:30",683021,16.54,252.6,1.76,0.484,16.37,106.8825,16.89,17.88,5.553,0,110.6,13.28,17.71,214.6
"2009-03-05 01:00:00",683022,15.49,253.7,3.019,0.401,16.35,106.8837,16.9,17.87,5.592,0,110.6,13.27,17.71,215.7
"2009-03-05 01:00:30",683023,16.86,255.9,2.213,0.65,16.43,106.8858,16.9,17.87,5.618,0,110.6,13.27,17.71,217.9
"2009-03-05 01:01:00",683024,15.56,252.2,0.988,0.318,16.33,106.8861,16.9,17.86,5.637,0,110.5,13.27,17.71,214.2
"2009-03-05 01:01:30",683025,14.18,249.4,3.148,0.797,16.26,106.8741,16.87,17.84,5.654,0,110.5,13.27,17.68,211.4
"2009-03-05 01:02:00",683026,13.67,249.2,4.114,0.474,16.22,106.8604,16.84,17.82,5.643,0,110.5,13.28,17.65,211.2
"2009-03-05 01:02:30",683027,16.11,254.9,3.409,0.59,16.28,106.8604,16.84,17.83,5.663,0,110.5,13.28,17.65,216.9
"2009-03-05 01:03:00",683028,18.37,258.8,1.586,0.892,16.32,106.8604,16.84,17.8,5.708,0,110.5,13.28,17.65,220.8
"2009-03-05 01:03:30",683029,17.72,257.9,1.734,0.841,16.46,106.8604,16.84,17.8,5.723,0,110.5,13.28,17.65,219.9
"2009-03-05 01:04:00",683030,15.74,256.1,3.007,0.563,16.54,106.8604,16.84,17.78,5.7,0,110.5,13.28,17.65,218.1
"2009-03-05 01:04:30",683031,14.15,252,2.298,0.728,16.46,106.8587,16.83,17.78,5.69,0,110.5,13.28,17.64,214.0
"2009-03-05 01:05:00",683032,16.21,255.2,2.139,0.692,16.38,106.8511,16.81,17.77,5.702,0,110.5,13.28,17.62,217.2
"2009-03-05 01:05:30",683033,16.68,257.3,1.013,0.321,16.54,106.8461,16.8,17.75,5.758,0,110.5,13.28,17.61,219.3
"2009-03-05 01:06:00",683034,16.39,258,1.402,0.515,16.45,106.8416,16.79,17.76,5.792,0,110.5,13.29,17.60,220.0
"2009-03-05 01:06:30",683035,19.4,265,1.413,0.528,16.32,106.8404,16.79,17.75,5.829,0,110.5,13.29,17.60,227.0
"2009-03-05 01:07:00",683036,19.49,261.8,1.134,0.549,16.43,106.8407,16.79,17.75,5.815,0,110.5,13.29,17.60,223.8
"2009-03-05 01:07:30",683037,19.43,260.9,2.088,0.798,16.44,106.8477,16.8,17.75,5.769,0,110.5,13.29,17.62,222.9
"2009-03-05 01:08:00",683038,19.23,258.5,1.645,0.983,16.4,106.8542,16.82,17.74,5.791,0,110.5,13.29,17.63,220.5
"2009-03-05 01:08:30",683039,17.34,261.7,1.669,0.45,16.38,106.8579,16.83,17.75,5.824,0,110.5,13.29,17.64,223.7
"2009-03-05 01:09:00",683040,17.74,266.9,1.517,0.482,16.24,106.8573,16.83,17.74,5.873,0,110.5,13.29,17.64,228.9
"2009-03-05 01:09:30",683041,16.27,258.6,3.856,1.608,16.25,106.8559,16.83,17.75,5.894,0,110.5,13.29,17.64,220.6
"2009-03-05 01:10:00",683042,15.89,259,3.066,0.715,16.36,106.8494,16.81,17.75,5.885,0,110.5,13.29,17.62,221.0
"2009-03-05 01:10:30",683043,17.65,261.8,2.013,1.216,16.34,106.8323,16.77,17.74,5.868,0,110.5,13.29,17.58,223.8
"2009-03-05 01:11:00",683044,18.02,258.2,1.538,0.668,16.49,106.8269,16.75,17.73,5.826,0,110.5,13.29,17.56,220.2
"2009-03-05 01:11:30",683045,17.58,258.6,1.212,0.495,16.55,106.8266,16.75,17.75,5.746,0,110.5,13.29,17.56,220.6
"2009-03-05 01:12:00",683046,16.18,259.4,2.098,0.72,16.57,106.8266,16.75,17.74,5.714,0,110.5,13.3,17.56,221.4
"2009-03-05 01:12:30",683047,15.59,263.2,2.671,0.706,16.47,106.8266,16.75,17.75,5.721,0,110.5,13.3,17.56,225.2
"2009-03-05 01:13:00",683048,16.01,262.8,1.441,0.479,16.5,106.8266,16.75,17.75,5.742,0,110.5,13.3,17.56,224.8
"2009-03-05 01:13:30",683049,16.17,260.5,2.36,0.589,16.43,106.8269,16.75,17.74,5.756,0,110.5,13.3,17.56,222.5
"2009-03-05 01:14:00",683050,15.74,260.1,2.011,1.106,16.38,106.8266,16.75,17.74,5.789,0,110.5,13.3,17.56,222.1
"2009-03-05 01:14:30",683051,13.95,268.9,1.937,0.566,16.23,106.8269,16.75,17.74,5.841,0,110.5,13.3,17.56,230.9
"2009-03-05 01:15:00",683052,14.72,268.4,1.589,0.232,16.24,106.8266,16.75,17.75,5.929,0,110.5,13.3,17.56,230.4
"2009-03-05 01:15:30",683053,14.24,267.6,1.145,0.331,16.27,106.8284,16.76,17.76,5.9,0,110.5,13.3,17.57,229.6
"2009-03-05 01:16:00",683054,15.53,266.6,2.009,0.681,16.31,106.8302,16.76,17.74,5.886,0,110.5,13.29,17.57,228.6
"2009-03-05 01:16:30",683055,15.26,267.4,3.299,0.693,16.42,106.8341,16.77,17.73,5.832,0,110.5,13.29,17.58,229.4
"2009-03-05 01:17:00",683056,13.52,268.2,1.614,0.571,16.3,106.8338,16.77,17.74,5.828,0,110.5,13.29,17.58,230.2
"2009-03-05 01:17:30",683057,14.17,271.5,2.932,0.497,16.25,106.8351,16.77,17.73,5.872,0,110.5,13.29,17.58,233.5
"2009-03-05 01:18:00",683058,14.99,267.9,1.161,0.578,16.32,106.8335,16.77,17.74,5.851,0,110.5,13.29,17.58,229.9
"2009-03-05 01:18:30",683059,15.34,266.4,1.768,0.7,16.32,106.8273,16.75,17.72,5.814,0,110.5,13.29,17.56,228.4
"2009-03-05 01:19:00",683060,15.18,266.7,4.438,0.41,16.44,106.8229,16.74,17.72,5.765,0,110.5,13.29,17.55,228.7
"2009-03-05 01:19:30",683061,13.62,270.6,1.403,0.522,16.39,106.8239,16.74,17.71,5.727,0,110.5,13.29,17.55,232.6
"2009-03-05 01:20:00",683062,12.87,267.1,2.355,0.329,16.45,106.8246,16.75,17.71,5.726,0,110.5,13.29,17.56,229.1
"2009-03-05 01:20:30",683063,11.45,261.7,2.357,0.405,16.34,106.8257,16.75,17.7,5.756,0,110.5,13.29,17.56,223.7
"2009-03-05 01:21:00",683064,12.38,266.7,3.227,0.4,16.24,106.8211,16.74,17.7,5.843,0,110.5,13.3,17.55,228.7
"2009-03-05 01:21:30",683065,11.71,266.1,1.96,0.418,16.2,106.825,16.75,17.7,5.912,0,110.5,13.3,17.56,228.1
"2009-03-05 01:22:00",683066,11.93,264.3,1.894,0.36,16.2,106.8259,16.75,17.71,5.967,0,110.5,13.3,17.56,226.3
"2009-03-05 01:22:30",683067,12.61,263.2,1.431,0.519,16.5,106.8274,16.75,17.7,5.948,0,110.5,13.3,17.56,225.2
"2009-03-05 01:23:00",683068,14.25,259.5,1.839,0.557,16.68,106.8283,16.76,17.69,5.833,0,110.5,13.3,17.57,221.5
"2009-03-05 01:23:30",683069,14.39,250.1,1.802,0.522,16.53,106.8289,16.76,17.7,5.781,0,110.5,13.3,17.57,212.1
"2009-03-05 01:24:00",683070,12.49,248,2.264,0.763,16.35,106.8289,16.76,17.69,5.779,0,110.5,13.3,17.57,210.0
"2009-03-05 01:24:30",683071,11.25,250.9,4.77,0.317,16.22,106.8267,16.75,17.67,5.819,0,110.5,13.3,17.56,212.9
"2009-03-05 01:25:00",683072,11.54,266.6,4.051,0.448,16.12,106.8199,16.73,17.66,5.863,0,110.5,13.3,17.54,228.6
"2009-03-05 01:25:30",683073,11.5,266.3,2.016,0.27,16.36,106.8092,16.71,17.66,5.883,0,110.5,13.3,17.52,228.3
"2009-03-05 01:26:00",683074,12.7,266.7,3.519,0.531,16.47,106.7965,16.67,17.66,5.853,0,110.5,13.3,17.48,228.7
"2009-03-05 01:26:30",683075,12.25,264.1,3.358,0.296,16.39,106.7951,16.67,17.66,5.864,0,110.5,13.3,17.48,226.1
"2009-03-05 01:27:00",683076,11.77,264.1,4.268,0.433,16.29,106.7951,16.67,17.65,5.864,0,110.5,13.3,17.48,226.1
"2009-03-05 01:27:30",683077,10.52,263.6,5.433,0.577,16.31,106.7951,16.67,17.64,5.913,0,110.5,13.3,17.48,225.6
"2009-03-05 01:28:00",683078,10.98,270.6,1.323,0.625,16.22,106.7951,16.67,17.64,5.937,0,110.5,13.31,17.48,232.6
"2009-03-05 01:28:30",683079,11.67,269.6,1.515,0.484,16.2,106.7948,16.67,17.62,5.989,0,110.5,13.31,17.48,231.6
"2009-03-05 01:29:00",683080,11.94,268.2,1.665,0.29,16.18,106.792,16.66,17.62,6.02,0,110.5,13.31,17.47,230.2
"2009-03-05 01:29:30",683081,12.28,268,2.648,0.588,16.3,106.7825,16.64,17.6,6.039,0,110.5,13.31,17.45,230.0
"2009-03-05 01:30:00",683082,12.11,267.7,2.355,0.404,16.25,106.7641,16.59,17.61,6.015,0,110.5,13.31,17.40,229.7
"2009-03-05 01:30:30",683083,11,265,2.219,0.528,16.35,106.7613,16.58,17.59,6.024,0,110.5,13.31,17.39,227.0
"2009-03-05 01:31:00",683084,10.41,259.4,4.186,0.281,16.49,106.7613,16.58,17.6,5.969,0,110.5,13.31,17.39,221.4
"2009-03-05 01:31:30",683085,9.53,256.7,2.385,0.575,16.42,106.7613,16.58,17.58,5.943,0,110.5,13.31,17.39,218.7
"2009-03-05 01:32:00",683086,10.29,259.4,2.42,0.343,16.3,106.7613,16.58,17.57,5.95,0,110.5,13.31,17.39,221.4
"2009-03-05 01:32:30",683087,10.83,258.9,2.145,0.325,16.51,106.7613,16.58,17.56,5.937,0,110.5,13.3,17.39,220.9
"2009-03-05 01:33:00",683088,11.57,256.9,2.726,0.357,16.46,106.7613,16.58,17.56,5.966,0,110.5,13.3,17.39,218.9
"2009-03-05 01:33:30",683089,12.52,260,2.885,1.158,16.31,106.7605,16.58,17.55,6.005,0,110.5,13.3,17.39,222.0
"2009-03-05 01:34:00",683090,14.96,266.2,2.928,1.492,16.3,106.7551,16.57,17.56,6.044,0,110.5,13.3,17.38,228.2
"2009-03-05 01:34:30",683091,16.15,267.3,1.535,1.023,16.3,106.7526,16.56,17.55,6.059,0,110.5,13.3,17.37,229.3
"2009-03-05 01:35:00",683092,15.69,261.4,3.684,0.921,16.5,106.7534,16.56,17.55,6.047,0,110.5,13.3,17.37,223.4
"2009-03-05 01:35:30",683093,14.48,252.8,3.449,0.801,16.25,106.7562,16.57,17.54,6.059,0,110.5,13.3,17.38,214.8
"2009-03-05 01:36:00",683094,13.1,252.8,1.33,0.432,16.48,106.754,16.56,17.55,6.07,0,110.5,13.3,17.37,214.8
"2009-03-05 01:36:30",683095,12.29,254.7,1.238,0.394,16.53,106.7571,16.57,17.53,6.054,0,110.5,13.3,17.38,216.7
"2009-03-05 01:37:00",683096,12.28,260.2,1.442,0.301,16.36,106.7594,16.58,17.54,6.061,0,110.5,13.3,17.39,222.2
"2009-03-05 01:37:30",683097,12.28,256,2.019,0.208,16.33,106.7605,16.58,17.54,6.044,0,110.5,13.31,17.39,218.0
"2009-03-05 01:38:00",683098,12.3,255,1.704,0.322,16.29,106.7608,16.58,17.55,6.047,0,110.5,13.31,17.39,217.0
"2009-03-05 01:38:30",683099,12.45,255.8,1.392,0.553,16.26,106.7543,16.57,17.55,6.033,0,110.5,13.31,17.38,217.8
"2009-03-05 01:39:00",683100,12.21,251.3,1.173,0.446,16.28,106.7523,16.56,17.54,6.037,0,110.5,13.32,17.37,213.3
"2009-03-05 01:39:30",683101,12.17,257.2,1.317,0.433,16.32,106.7428,16.54,17.54,6.089,0,110.5,13.32,17.35,219.2
"2009-03-05 01:40:00",683102,11.51,257.6,1.552,0.253,16.22,106.7295,16.5,17.53,6.129,0,110.5,13.32,17.31,219.6
"2009-03-05 01:40:30",683103,10.89,256,3.206,0.256,16.21,106.7275,16.5,17.52,6.131,0,110.5,13.32,17.31,218.0
"2009-03-05 01:41:00",683104,10.96,256.6,2.465,0.298,16.18,106.7275,16.5,17.54,6.119,0,110.5,13.32,17.31,218.6
"2009-03-05 01:41:30",683105,11.25,258.5,1.455,0.394,16.12,106.7275,16.5,17.52,6.144,0,110.5,13.32,17.31,220.5
"2009-03-05 01:42:00",683106,11.71,255.7,1.239,0.27,16.27,106.7261,16.49,17.5,6.152,0,110.5,13.32,17.30,217.7
"2009-03-05 01:42:30",683107,11.16,253.2,2.428,0.351,16.35,106.7071,16.44,17.5,6.216,0,110.5,13.32,17.25,215.2
"2009-03-05 01:43:00",683108,11.01,255.7,2.224,0.449,16.33,106.6958,16.42,17.48,6.279,0,110.5,13.32,17.22,217.7
"2009-03-05 01:43:30",683109,11.56,259,3.941,0.352,16.4,106.6973,16.42,17.46,6.324,0,110.5,13.32,17.23,221.0
"2009-03-05 01:44:00",683110,11.55,264.8,4.407,0.453,16.18,106.6988,16.42,17.46,6.296,0,110.5,13.32,17.23,226.8
"2009-03-05 01:44:30",683111,12.52,265.1,1.062,0.532,16.34,106.6997,16.43,17.47,6.26,0,110.5,13.32,17.23,227.1
"2009-03-05 01:45:00",683112,11.78,265.8,1.234,0.256,16.35,106.7018,16.43,17.44,6.255,0,110.5,13.32,17.24,227.8
"2009-03-05 01:45:30",683113,12.25,266,1.582,0.425,16.21,106.7027,16.43,17.44,6.27,0,110.5,13.32,17.24,228.0
"2009-03-05 01:46:00",683114,12.74,267.8,2.081,0.543,16.15,106.7016,16.43,17.43,6.291,0,110.5,13.32,17.24,229.8
"2009-03-05 01:46:30",683115,12.71,268.3,0.888,0.155,16.26,106.6975,16.42,17.42,6.309,0,110.5,13.32,17.23,230.3
"2009-03-05 01:47:00",683116,12.7,268,0.857,0.282,16.3,106.697,16.42,17.42,6.293,0,110.5,13.32,17.23,230.0
"2009-03-05 01:47:30",683117,12.03,263.3,2.083,0.595,16.39,106.695,16.41,17.41,6.291,0,110.5,13.32,17.22,225.3
"2009-03-05 01:48:00",683118,10.62,260.9,1.401,0.219,16.39,106.6981,16.42,17.41,6.329,0,110.5,13.32,17.23,222.9